When you browse on this site, cookies collect data to enhance your experience and personalize the content and advertising you see.
Visit our Privacy Policy to learn more. By continuing to use the site, you agree to this use of cookies and data.
  • In Österreich
  • Länderverzeichnis
  • Für 7 Tage
  • Wassertemperatur
  • Satellitenkarten
  • Wetterkarte
  • News
  • Widgets
  • user-avatar
    Anmelden

    Stündliche Wetter Staunton

    Heute, 19 Juli, Freitag

    Zeit Temperatur Niederschläge Wind Luftdruck Luftfeuchtigkeit
    00:00 +24°C° 0.1 mm 1 m/S 721 mmHg 88%
    01:00 +23°C° 0 mm 1 m/S 721 mmHg 86%
    02:00 +23°C° 0 mm 1 m/S 721 mmHg 87%
    03:00 +22°C° 0 mm 1 m/S 721 mmHg 88%
    04:00 +22°C° 0 mm 1 m/S 720 mmHg 89%
    05:00 +23°C° 0 mm 1 m/S 721 mmHg 87%
    06:00 +23°C° 0 mm 1 m/S 721 mmHg 86%
    07:00 +25°C° 0 mm 1 m/S 722 mmHg 84%
    08:00 +27°C° 0 mm 1 m/S 723 mmHg 75%
    09:00 +29°C° 0 mm 1 m/S 723 mmHg 66%
    10:00 +32°C° 0 mm 1 m/S 723 mmHg 57%
    11:00 +33°C° 0 mm 1 m/S 723 mmHg 56%
    12:00 +33°C° 0 mm 1 m/S 723 mmHg 54%
    13:00 +35°C° 0 mm 2 m/S 722 mmHg 52%
    14:00 +36°C° 0 mm 2 m/S 722 mmHg 50%
    15:00 +36°C° 0 mm 2 m/S 722 mmHg 49%
    16:00 +36°C° 0 mm 3 m/S 721 mmHg 48%
    17:00 +34°C° 0 mm 3 m/S 721 mmHg 54%
    18:00 +32°C° 0 mm 2 m/S 721 mmHg 61%
    19:00 +30°C° 0 mm 2 m/S 721 mmHg 68%
    20:00 +29°C° 0.1 mm 2 m/S 721 mmHg 72%
    21:00 +27°C° 0.1 mm 2 m/S 721 mmHg 75%
    22:00 +26°C° 0.1 mm 1 m/S 721 mmHg 79%
    23:00 +26°C° 0 mm 1 m/S 721 mmHg 81%

    Morgen, 20 Juli, Samstag

    Zeit Temperatur Niederschläge Wind Luftdruck Luftfeuchtigkeit
    00:00 +25°C° 0 mm 1 m/S 721 mmHg 83%
    01:00 +25°C° 0 mm 1 m/S 721 mmHg 85%
    02:00 +24°C° 0 mm 1 m/S 721 mmHg 87%
    03:00 +24°C° 0 mm 1 m/S 721 mmHg 88%
    04:00 +24°C° 0 mm 1 m/S 721 mmHg 89%
    05:00 +25°C° 0 mm 1 m/S 722 mmHg 87%
    06:00 +26°C° 0 mm 1 m/S 722 mmHg 86%
    07:00 +27°C° 0 mm 1 m/S 722 mmHg 84%
    08:00 +29°C° 0 mm 1 m/S 722 mmHg 75%
    09:00 +31°C° 0 mm 1 m/S 722 mmHg 67%
    10:00 +34°C° 0 mm 2 m/S 723 mmHg 58%
    11:00 +35°C° 0 mm 2 m/S 722 mmHg 54%
    12:00 +36°C° 0 mm 2 m/S 722 mmHg 49%
    13:00 +37°C° 0 mm 2 m/S 722 mmHg 44%
    14:00 +37°C° 0 mm 3 m/S 722 mmHg 45%
    15:00 +37°C° 0 mm 3 m/S 722 mmHg 45%
    16:00 +37°C° 0 mm 3 m/S 721 mmHg 46%
    17:00 +36°C° 0 mm 3 m/S 721 mmHg 51%
    18:00 +34°C° 0 mm 2 m/S 721 mmHg 57%
    19:00 +31°C° 0 mm 2 m/S 721 mmHg 62%
    20:00 +30°C° 0.2 mm 1 m/S 721 mmHg 67%
    21:00 +28°C° 0.2 mm 1 m/S 721 mmHg 72%
    22:00 +27°C° 0.2 mm 1 m/S 721 mmHg 76%
    23:00 +26°C° 0 mm 1 m/S 721 mmHg 78%

    übermorgen, 21 Juli, Sonntag

    Zeit Temperatur Niederschläge Wind Luftdruck Luftfeuchtigkeit
    00:00 +26°C° 0 mm 1 m/S 721 mmHg 80%
    01:00 +25°C° 0 mm 1 m/S 721 mmHg 82%
    02:00 +25°C° 0 mm 1 m/S 721 mmHg 83%
    03:00 +25°C° 0 mm 1 m/S 721 mmHg 84%
    04:00 +24°C° 0 mm 1 m/S 721 mmHg 84%
    05:00 +25°C° 0 mm 1 m/S 721 mmHg 82%
    06:00 +26°C° 0 mm 1 m/S 722 mmHg 80%
    07:00 +27°C° 0 mm 1 m/S 722 mmHg 78%
    08:00 +30°C° 0.3 mm 1 m/S 722 mmHg 70%
    09:00 +32°C° 0.3 mm 1 m/S 722 mmHg 62%
    10:00 +34°C° 0.3 mm 1 m/S 722 mmHg 54%
    11:00 +35°C° 0 mm 1 m/S 722 mmHg 50%
    12:00 +36°C° 0 mm 2 m/S 722 mmHg 46%
    13:00 +37°C° 0 mm 3 m/S 722 mmHg 42%
    14:00 +37°C° 0 mm 3 m/S 721 mmHg 44%
    15:00 +37°C° 0 mm 3 m/S 721 mmHg 45%
    16:00 +36°C° 0 mm 2 m/S 721 mmHg 47%
    17:00 +34°C° 0.2 mm 3 m/S 720 mmHg 56%
    18:00 +31°C° 0.2 mm 3 m/S 720 mmHg 65%
    19:00 +29°C° 0.2 mm 3 m/S 720 mmHg 74%
    20:00 +27°C° 1.5 mm 2 m/S 720 mmHg 78%
    21:00 +26°C° 1.5 mm 2 m/S 720 mmHg 82%
    22:00 +24°C° 1.5 mm 1 m/S 721 mmHg 86%
    23:00 +24°C° 0.6 mm 1 m/S 720 mmHg 87%

    22 Juli, Montag

    Zeit Temperatur Niederschläge Wind Luftdruck Luftfeuchtigkeit
    00:00 +23°C° 0.6 mm 1 m/S 720 mmHg 88%
    01:00 +23°C° 0.6 mm 1 m/S 720 mmHg 89%
    02:00 +23°C° 0 mm 1 m/S 720 mmHg 90%
    03:00 +22°C° 0 mm 1 m/S 719 mmHg 90%
    04:00 +22°C° 0 mm 1 m/S 719 mmHg 90%
    05:00 +23°C° 0 mm 2 m/S 719 mmHg 89%
    06:00 +23°C° 0 mm 2 m/S 720 mmHg 88%
    07:00 +24°C° 0 mm 2 m/S 720 mmHg 87%
    08:00 +26°C° 0 mm 2 m/S 720 mmHg 79%
    09:00 +28°C° 0 mm 3 m/S 720 mmHg 71%
    10:00 +30°C° 0 mm 3 m/S 720 mmHg 63%
    11:00 +32°C° 0.3 mm 4 m/S 720 mmHg 62%
    12:00 +33°C° 0.3 mm 4 m/S 719 mmHg 61%
    13:00 +33°C° 0.3 mm 5 m/S 719 mmHg 59%
    14:00 +33°C° 0.2 mm 5 m/S 719 mmHg 60%
    15:00 +32°C° 0.2 mm 5 m/S 718 mmHg 61%
    16:00 +32°C° 0.2 mm 5 m/S 718 mmHg 61%
    17:00 +29°C° 0.1 mm 4 m/S 718 mmHg 67%
    18:00 +28°C° 0.1 mm 4 m/S 718 mmHg 73%
    19:00 +27°C° 0.1 mm 3 m/S 718 mmHg 78%
    20:00 +26°C° 0 mm 3 m/S 717 mmHg 80%
    21:00 +25°C° 0 mm 2 m/S 717 mmHg 82%
    22:00 +25°C° 0 mm 2 m/S 717 mmHg 83%
    23:00 +24°C° 0 mm 3 m/S 717 mmHg 84%

    23 Juli, Dienstag

    Zeit Temperatur Niederschläge Wind Luftdruck Luftfeuchtigkeit
    00:00 +24°C° 0 mm 3 m/S 717 mmHg 84%
    01:00 +24°C° 0 mm 3 m/S 716 mmHg 85%
    02:00 +24°C° 0 mm 3 m/S 716 mmHg 85%
    03:00 +24°C° 0 mm 3 m/S 716 mmHg 86%
    04:00 +22°C° 0 mm 3 m/S 716 mmHg 86%
    05:00 +22°C° 1.6 mm 3 m/S 717 mmHg 89%
    06:00 +21°C° 1.6 mm 3 m/S 718 mmHg 92%
    07:00 +20°C° 1.6 mm 2 m/S 718 mmHg 96%
    08:00 +21°C° 0.7 mm 2 m/S 719 mmHg 92%
    09:00 +21°C° 0.7 mm 2 m/S 719 mmHg 88%
    10:00 +23°C° 0.7 mm 2 m/S 720 mmHg 84%
    11:00 +24°C° 0.4 mm 2 m/S 720 mmHg 80%
    12:00 +24°C° 0.4 mm 2 m/S 720 mmHg 75%
    13:00 +25°C° 0.4 mm 3 m/S 721 mmHg 71%
    14:00 +25°C° 0.1 mm 3 m/S 721 mmHg 67%
    15:00 +26°C° 0.1 mm 2 m/S 720 mmHg 62%
    16:00 +26°C° 0.1 mm 2 m/S 720 mmHg 58%
    17:00 +25°C° 0 mm 2 m/S 721 mmHg 61%
    18:00 +24°C° 0 mm 2 m/S 721 mmHg 64%
    19:00 +23°C° 0 mm 1 m/S 721 mmHg 67%
    20:00 +22°C° 0 mm 1 m/S 721 mmHg 67%
    21:00 +21°C° 0 mm 1 m/S 722 mmHg 66%
    22:00 +20°C° 0 mm 1 m/S 722 mmHg 66%
    23:00 +19°C° 0 mm 1 m/S 722 mmHg 69%

    24 Juli, Mittwoch

    Zeit Temperatur Niederschläge Wind Luftdruck Luftfeuchtigkeit
    00:00 +18°C° 0 mm 1 m/S 722 mmHg 73%
    01:00 +16°C° 0 mm 1 m/S 722 mmHg 76%
    02:00 +15°C° 0 mm 1 m/S 722 mmHg 78%
    03:00 +15°C° 0 mm 1 m/S 722 mmHg 80%
    04:00 +14°C° 0 mm 1 m/S 722 mmHg 82%
    05:00 +16°C° 0 mm 1 m/S 722 mmHg 79%
    06:00 +18°C° 0 mm 1 m/S 723 mmHg 77%
    07:00 +19°C° 0 mm 1 m/S 723 mmHg 74%
    08:00 +21°C° 0 mm 1 m/S 724 mmHg 68%
    09:00 +23°C° 0 mm 1 m/S 724 mmHg 61%
    10:00 +25°C° 0 mm 1 m/S 724 mmHg 54%
    11:00 +26°C° 0 mm 1 m/S 724 mmHg 51%
    12:00 +26°C° 0 mm 1 m/S 724 mmHg 48%
    13:00 +27°C° 0 mm 1 m/S 724 mmHg 45%
    14:00 +27°C° 0 mm 1 m/S 724 mmHg 46%
    15:00 +27°C° 0 mm 1 m/S 724 mmHg 46%
    16:00 +27°C° 0 mm 1 m/S 723 mmHg 47%
    17:00 +25°C° 0 mm 1 m/S 723 mmHg 53%
    18:00 +24°C° 0 mm 2 m/S 723 mmHg 60%
    19:00 +21°C° 0 mm 2 m/S 723 mmHg 66%
    20:00 +21°C° 0 mm 1 m/S 724 mmHg 68%
    21:00 +20°C° 0 mm 1 m/S 724 mmHg 70%
    22:00 +18°C° 0 mm 1 m/S 724 mmHg 71%
    23:00 +16°C° 0 mm 1 m/S 724 mmHg 71%
    Mehr zeigen